Time,TemperatureF,DewpointF,PressureIn,WindDirection,WindDirectionDegrees,WindSpeedMPH,WindSpeedGustMPH,Humidity,HourlyPrecipIn,Conditions,Clouds,dailyrainin,SoftwareType,DateUTC
2013-01-02 00:02:00,16.0,11.0,30.09,ENE,69,0.0,0.0,81,0.00,,,0.00,,2013-01-02 06:02:00,
2013-01-02 00:12:00,16.0,11.0,30.09,ENE,69,0.0,0.0,81,0.00,,,0.00,,2013-01-02 06:12:00,
2013-01-02 00:22:00,16.0,11.0,30.09,ENE,69,0.0,0.0,81,0.00,,,0.00,,2013-01-02 06:22:00,
2013-01-02 00:32:00,16.0,11.0,30.08,ESE,107,0.0,0.0,82,0.00,,,0.00,,2013-01-02 06:32:00,
2013-01-02 00:42:00,16.0,11.0,30.08,ESE,107,0.0,0.0,82,0.00,,,0.00,,2013-01-02 06:42:00,
2013-01-02 00:52:00,17.0,12.0,30.07,SSE,147,0.0,1.0,82,0.00,,,0.00,,2013-01-02 06:52:00,
2013-01-02 01:02:00,17.0,12.0,30.07,East,89,0.0,0.0,82,0.00,,,0.00,,2013-01-02 07:02:00,
2013-01-02 01:12:00,17.0,12.0,30.07,East,89,0.0,0.0,82,0.00,,,0.00,,2013-01-02 07:12:00,
2013-01-02 01:22:00,17.0,12.0,30.07,SE,136,0.0,1.0,82,0.00,,,0.00,,2013-01-02 07:22:00,
2013-01-02 01:32:00,17.0,12.0,30.06,ESE,121,0.0,1.0,81,0.00,,,0.00,,2013-01-02 07:32:00,
2013-01-02 01:42:00,17.0,12.0,30.06,ESE,121,0.0,1.0,81,0.00,,,0.00,,2013-01-02 07:42:00,
2013-01-02 01:52:00,17.0,12.0,30.05,ESE,121,0.0,0.0,82,0.00,,,0.00,,2013-01-02 07:52:00,
2013-01-02 02:02:00,17.0,12.0,30.06,ESE,121,0.0,1.0,82,0.00,,,0.00,,2013-01-02 08:02:00,
2013-01-02 02:11:00,17.0,12.0,30.06,ESE,121,0.0,1.0,82,0.00,,,0.00,,2013-01-02 08:11:00,
2013-01-02 02:22:00,17.0,12.0,30.06,SE,129,0.0,2.0,82,0.00,,,0.00,,2013-01-02 08:22:00,
2013-01-02 02:32:00,18.0,13.0,30.06,SSW,200,0.0,1.0,82,0.00,,,0.00,,2013-01-02 08:32:00,
2013-01-02 02:42:00,18.0,13.0,30.06,SSW,200,0.0,1.0,82,0.00,,,0.00,,2013-01-02 08:42:00,
2013-01-02 02:52:00,18.0,13.0,30.06,SE,127,0.0,3.0,81,0.00,,,0.00,,2013-01-02 08:52:00,
2013-01-02 03:02:00,18.0,13.0,30.06,South,191,0.0,2.0,80,0.00,,,0.00,,2013-01-02 09:02:00,
2013-01-02 03:12:00,18.0,13.0,30.06,South,191,0.0,2.0,80,0.00,,,0.00,,2013-01-02 09:12:00,
2013-01-02 03:22:00,18.0,13.0,30.06,ESE,105,1.0,3.0,80,0.00,,,0.00,,2013-01-02 09:22:00,
2013-01-02 03:32:00,18.0,13.0,30.06,South,171,0.0,2.0,80,0.00,,,0.00,,2013-01-02 09:32:00,
2013-01-02 03:43:00,18.0,13.0,30.06,South,171,0.0,2.0,80,0.00,,,0.00,,2013-01-02 09:43:00,
2013-01-02 03:53:00,18.0,13.0,30.06,ENE,78,0.0,2.0,80,0.00,,,0.00,,2013-01-02 09:53:00,
2013-01-02 04:02:00,17.0,12.0,30.05,East,95,0.0,1.0,80,0.00,,,0.00,,2013-01-02 10:02:00,
2013-01-02 04:12:00,16.0,11.0,30.05,East,95,0.0,0.0,81,0.00,,,0.00,,2013-01-02 10:12:00,
2013-01-02 04:22:00,16.0,11.0,30.05,East,95,0.0,0.0,81,0.00,,,0.00,,2013-01-02 10:22:00,
2013-01-02 04:32:00,15.0,11.0,30.04,East,95,0.0,0.0,82,0.00,,,0.00,,2013-01-02 10:32:00,
2013-01-02 04:42:00,15.0,11.0,30.04,East,95,0.0,0.0,82,0.00,,,0.00,,2013-01-02 10:42:00,
2013-01-02 04:52:00,14.0,9.0,30.03,ESE,105,0.0,1.0,81,0.00,,,0.00,,2013-01-02 10:52:00,
2013-01-02 05:02:00,13.0,9.0,30.03,ESE,111,0.0,0.0,82,0.00,,,0.00,,2013-01-02 11:02:00,
2013-01-02 05:12:00,13.0,9.0,30.03,ESE,111,0.0,0.0,82,0.00,,,0.00,,2013-01-02 11:12:00,
2013-01-02 05:22:00,13.0,9.0,30.03,ESE,111,0.0,0.0,83,0.00,,,0.00,,2013-01-02 11:22:00,
2013-01-02 05:32:00,12.0,8.0,30.03,ESE,111,0.0,0.0,82,0.00,,,0.00,,2013-01-02 11:32:00,
2013-01-02 05:42:00,12.0,8.0,30.03,ESE,111,0.0,0.0,82,0.00,,,0.00,,2013-01-02 11:42:00,
2013-01-02 05:52:00,11.0,7.0,30.02,ESE,111,0.0,0.0,83,0.00,,,0.00,,2013-01-02 11:52:00,
2013-01-02 06:02:00,11.0,7.0,30.03,ESE,111,0.0,0.0,84,0.00,,,0.00,,2013-01-02 12:02:00,
2013-01-02 06:12:00,11.0,7.0,30.03,ESE,111,0.0,0.0,84,0.00,,,0.00,,2013-01-02 12:12:00,
2013-01-02 06:22:00,11.0,7.0,30.02,ESE,111,0.0,0.0,85,0.00,,,0.00,,2013-01-02 12:22:00,
2013-01-02 06:32:00,12.0,8.0,30.02,ESE,111,0.0,0.0,85,0.00,,,0.00,,2013-01-02 12:32:00,
2013-01-02 06:42:00,12.0,8.0,30.02,ESE,111,0.0,0.0,85,0.00,,,0.00,,2013-01-02 12:42:00,
2013-01-02 06:52:00,12.0,8.0,30.01,ESE,111,0.0,0.0,84,0.00,,,0.00,,2013-01-02 12:52:00,
2013-01-02 07:02:00,12.0,8.0,30.01,ESE,111,0.0,0.0,83,0.00,,,0.00,,2013-01-02 13:02:00,
2013-01-02 07:12:00,12.0,8.0,30.01,ESE,111,0.0,0.0,83,0.00,,,0.00,,2013-01-02 13:12:00,
2013-01-02 07:22:00,11.0,7.0,30.01,ESE,111,0.0,0.0,82,0.00,,,0.00,,2013-01-02 13:22:00,
2013-01-02 07:32:00,11.0,7.0,30.02,ESE,111,0.0,0.0,83,0.00,,,0.00,,2013-01-02 13:32:00,
2013-01-02 07:42:00,11.0,7.0,30.02,ESE,111,0.0,0.0,83,0.00,,,0.00,,2013-01-02 13:42:00,
2013-01-02 07:52:00,10.0,6.0,30.01,ESE,111,0.0,0.0,82,0.00,,,0.00,,2013-01-02 13:52:00,
2013-01-02 08:02:00,10.0,6.0,30.02,ESE,111,0.0,0.0,82,0.00,,,0.00,,2013-01-02 14:02:00,
2013-01-02 08:12:00,10.0,6.0,30.02,ESE,111,0.0,0.0,82,0.00,,,0.00,,2013-01-02 14:12:00,
2013-01-02 08:22:00,10.0,6.0,30.02,ESE,111,0.0,0.0,84,0.00,,,0.00,,2013-01-02 14:22:00,
2013-01-02 08:33:00,10.0,6.0,30.02,SE,134,0.0,2.0,82,0.00,,,0.00,,2013-01-02 14:33:00,
2013-01-02 08:42:00,10.0,6.0,30.02,SE,134,0.0,2.0,82,0.00,,,0.00,,2013-01-02 14:42:00,
2013-01-02 08:53:00,11.0,7.0,30.02,SE,134,0.0,0.0,82,0.00,,,0.00,,2013-01-02 14:53:00,
2013-01-02 09:02:00,12.0,7.0,30.02,SE,134,0.0,0.0,81,0.00,,,0.00,,2013-01-02 15:02:00,
2013-01-02 09:12:00,12.0,7.0,30.02,SE,134,0.0,0.0,81,0.00,,,0.00,,2013-01-02 15:12:00,
2013-01-02 09:22:00,12.0,6.0,30.03,East,92,0.0,2.0,78,0.00,,,0.00,,2013-01-02 15:22:00,
2013-01-02 09:33:00,12.0,6.0,30.03,East,94,0.0,1.0,77,0.00,,,0.00,,2013-01-02 15:33:00,
2013-01-02 09:42:00,12.0,6.0,30.03,East,94,0.0,1.0,77,0.00,,,0.00,,2013-01-02 15:42:00,
2013-01-02 09:53:00,13.0,7.0,30.03,SSE,162,0.0,0.0,76,0.00,,,0.00,,2013-01-02 15:53:00,
2013-01-02 10:03:00,13.0,7.0,30.03,WSW,258,1.0,2.0,75,0.00,,,0.00,,2013-01-02 16:03:00,
2013-01-02 10:12:00,13.0,7.0,30.03,WSW,258,1.0,2.0,75,0.00,,,0.00,,2013-01-02 16:12:00,
2013-01-02 10:22:00,13.0,6.0,30.03,NW,310,1.0,3.0,74,0.00,,,0.00,,2013-01-02 16:22:00,
2013-01-02 10:33:00,13.0,6.0,30.03,East,98,0.0,3.0,73,0.00,,,0.00,,2013-01-02 16:33:00,
2013-01-02 10:42:00,13.0,6.0,30.03,East,98,0.0,3.0,73,0.00,,,0.00,,2013-01-02 16:42:00,
2013-01-02 10:53:00,14.0,7.0,30.03,SE,138,0.0,2.0,73,0.00,,,0.00,,2013-01-02 16:53:00,
2013-01-02 11:03:00,14.0,7.0,30.02,SSE,163,0.0,1.0,73,0.00,,,0.00,,2013-01-02 17:03:00,
2013-01-02 11:12:00,14.0,7.0,30.02,SSE,163,0.0,1.0,73,0.00,,,0.00,,2013-01-02 17:12:00,
2013-01-02 11:22:00,15.0,8.0,30.02,SE,136,0.0,3.0,72,0.00,,,0.00,,2013-01-02 17:22:00,
2013-01-02 11:33:00,15.0,7.0,30.01,ESE,120,0.0,2.0,71,0.00,,,0.00,,2013-01-02 17:33:00,
2013-01-02 11:43:00,15.0,7.0,30.01,ESE,120,0.0,2.0,71,0.00,,,0.00,,2013-01-02 17:43:00,
2013-01-02 11:53:00,15.0,7.0,30.00,SE,126,0.0,2.0,71,0.00,,,0.00,,2013-01-02 17:53:00,
2013-01-02 12:02:00,15.0,7.0,29.99,SSE,148,2.0,2.0,70,0.00,,,0.00,,2013-01-02 18:02:00,
2013-01-02 12:12:00,15.0,7.0,29.99,SSE,148,2.0,2.0,70,0.00,,,0.00,,2013-01-02 18:12:00,
2013-01-02 12:22:00,16.0,8.0,29.98,ESE,107,0.0,0.0,71,0.00,,,0.00,,2013-01-02 18:22:00,
2013-01-02 12:33:00,17.0,9.0,29.98,ESE,113,0.0,2.0,69,0.00,,,0.00,,2013-01-02 18:33:00,
2013-01-02 12:42:00,17.0,9.0,29.98,ESE,113,0.0,2.0,69,0.00,,,0.00,,2013-01-02 18:42:00,
2013-01-02 12:53:00,17.0,9.0,29.97,ESE,111,0.0,2.0,69,0.00,,,0.00,,2013-01-02 18:53:00,
2013-01-02 13:03:00,17.0,9.0,29.97,SSW,196,1.0,5.0,69,0.00,,,0.00,,2013-01-02 19:03:00,
2013-01-02 13:12:00,17.0,9.0,29.97,SSW,196,1.0,5.0,69,0.00,,,0.00,,2013-01-02 19:12:00,
2013-01-02 13:22:00,18.0,10.0,29.97,East,92,0.0,1.0,69,0.00,,,0.00,,2013-01-02 19:22:00,
2013-01-02 13:32:00,18.0,10.0,29.96,ESE,118,0.0,2.0,69,0.00,,,0.00,,2013-01-02 19:32:00,
2013-01-02 13:43:00,18.0,10.0,29.96,ESE,118,0.0,2.0,69,0.00,,,0.00,,2013-01-02 19:43:00,
2013-01-02 13:52:00,18.0,9.0,29.96,ESE,109,1.0,3.0,68,0.00,,,0.00,,2013-01-02 19:52:00,
2013-01-02 14:02:00,18.0,10.0,29.97,SE,128,0.0,3.0,69,0.00,,,0.00,,2013-01-02 20:02:00,
2013-01-02 14:12:00,18.0,10.0,29.97,SE,128,0.0,3.0,69,0.00,,,0.00,,2013-01-02 20:12:00,
2013-01-02 14:23:00,18.0,10.0,29.96,SSE,148,0.0,3.0,70,0.00,,,0.00,,2013-01-02 20:23:00,
2013-01-02 14:33:00,18.0,10.0,29.97,SSE,148,1.0,3.0,69,0.00,,,0.00,,2013-01-02 20:33:00,
2013-01-02 14:42:00,18.0,10.0,29.97,SSE,148,1.0,3.0,69,0.00,,,0.00,,2013-01-02 20:42:00,
2013-01-02 14:53:00,19.0,11.0,29.98,SSE,165,0.0,0.0,70,0.00,,,0.00,,2013-01-02 20:53:00,
2013-01-02 15:03:00,19.0,11.0,29.98,ESE,123,0.0,1.0,70,0.00,,,0.00,,2013-01-02 21:03:00,
2013-01-02 15:12:00,19.0,11.0,29.98,ESE,123,0.0,1.0,70,0.00,,,0.00,,2013-01-02 21:12:00,
2013-01-02 15:22:00,18.0,10.0,29.98,ESE,122,0.0,2.0,70,0.00,,,0.00,,2013-01-02 21:22:00,
2013-01-02 15:32:00,18.0,11.0,29.98,SE,140,0.0,2.0,72,0.00,,,0.00,,2013-01-02 21:32:00,
2013-01-02 15:42:00,18.0,11.0,29.98,SE,140,0.0,2.0,72,0.00,,,0.00,,2013-01-02 21:42:00,
2013-01-02 15:52:00,18.0,11.0,29.98,SE,133,0.0,1.0,73,0.00,,,0.00,,2013-01-02 21:52:00,
2013-01-02 16:02:00,18.0,11.0,29.98,SE,132,0.0,1.0,72,0.00,,,0.00,,2013-01-02 22:02:00,
2013-01-02 16:12:00,18.0,11.0,29.98,SE,132,0.0,1.0,72,0.00,,,0.00,,2013-01-02 22:12:00,
2013-01-02 16:22:00,18.0,11.0,29.99,SE,134,0.0,1.0,73,0.00,,,0.00,,2013-01-02 22:22:00,
2013-01-02 16:32:00,18.0,11.0,29.99,SE,130,0.0,2.0,73,0.00,,,0.00,,2013-01-02 22:32:00,
2013-01-02 16:42:00,18.0,11.0,29.99,SE,130,0.0,2.0,73,0.00,,,0.00,,2013-01-02 22:42:00,
2013-01-02 16:52:00,18.0,11.0,30.00,SE,130,0.0,0.0,74,0.00,,,0.00,,2013-01-02 22:52:00,
2013-01-02 17:02:00,18.0,11.0,30.00,SE,130,0.0,0.0,74,0.00,,,0.00,,2013-01-02 23:02:00,
2013-01-02 17:12:00,18.0,12.0,30.00,SE,130,0.0,0.0,76,0.00,,,0.00,,2013-01-02 23:12:00,
2013-01-02 17:22:00,18.0,12.0,30.00,SE,130,0.0,0.0,76,0.00,,,0.00,,2013-01-02 23:22:00,
2013-01-02 17:33:00,18.0,12.0,30.01,SE,130,0.0,0.0,76,0.00,,,0.00,,2013-01-02 23:33:00,
2013-01-02 17:42:00,18.0,12.0,30.01,SE,130,0.0,0.0,76,0.00,,,0.00,,2013-01-02 23:42:00,
2013-01-02 17:52:00,18.0,12.0,30.01,SE,130,0.0,0.0,76,0.00,,,0.00,,2013-01-02 23:52:00,
2013-01-02 18:02:00,18.0,12.0,30.01,SE,130,0.0,0.0,76,0.00,,,0.00,,2013-01-03 00:02:00,
2013-01-02 18:12:00,18.0,12.0,30.01,SE,130,0.0,0.0,76,0.00,,,0.00,,2013-01-03 00:12:00,
2013-01-02 18:22:00,18.0,11.0,30.01,SE,130,0.0,0.0,75,0.00,,,0.00,,2013-01-03 00:22:00,
2013-01-02 18:42:00,18.0,11.0,30.01,SE,130,0.0,1.0,75,0.00,,,0.00,,2013-01-03 00:42:00,
2013-01-02 18:52:00,18.0,12.0,30.01,SE,130,0.0,0.0,76,0.00,,,0.00,,2013-01-03 00:52:00,
2013-01-02 19:02:00,17.0,10.0,30.01,SE,130,0.0,0.0,75,0.00,,,0.00,,2013-01-03 01:02:00,
2013-01-02 19:12:00,17.0,10.0,30.01,SE,130,0.0,0.0,75,0.00,,,0.00,,2013-01-03 01:12:00,
2013-01-02 19:22:00,17.0,11.0,30.02,SE,130,0.0,0.0,77,0.00,,,0.00,,2013-01-03 01:22:00,
2013-01-02 19:32:00,17.0,11.0,30.02,SE,130,0.0,0.0,77,0.00,,,0.00,,2013-01-03 01:32:00,
2013-01-02 19:42:00,17.0,11.0,30.02,SE,130,0.0,0.0,77,0.00,,,0.00,,2013-01-03 01:42:00,
2013-01-02 19:52:00,17.0,11.0,30.02,SE,130,0.0,0.0,77,0.00,,,0.00,,2013-01-03 01:52:00,
2013-01-02 20:02:00,17.0,12.0,30.02,SE,130,0.0,0.0,79,0.00,,,0.00,,2013-01-03 02:02:00,
2013-01-02 20:12:00,17.0,12.0,30.02,SE,130,0.0,0.0,79,0.00,,,0.00,,2013-01-03 02:12:00,
2013-01-02 20:22:00,17.0,12.0,30.02,SE,130,0.0,0.0,79,0.00,,,0.00,,2013-01-03 02:22:00,
2013-01-02 20:33:00,16.0,11.0,30.02,SE,130,0.0,0.0,80,0.00,,,0.00,,2013-01-03 02:33:00,
2013-01-02 20:42:00,16.0,11.0,30.02,SE,130,0.0,0.0,80,0.00,,,0.00,,2013-01-03 02:42:00,
2013-01-02 20:52:00,16.0,11.0,30.02,SE,130,0.0,0.0,80,0.00,,,0.00,,2013-01-03 02:52:00,
2013-01-02 21:02:00,16.0,11.0,30.03,SE,130,0.0,0.0,81,0.00,,,0.00,,2013-01-03 03:02:00,
2013-01-02 21:12:00,16.0,11.0,30.02,SSE,151,0.0,2.0,81,0.00,,,0.00,,2013-01-03 03:12:00,
2013-01-02 21:22:00,16.0,11.0,30.02,SSE,151,0.0,2.0,81,0.00,,,0.00,,2013-01-03 03:22:00,
2013-01-02 21:45:00,16.0,11.0,30.02,SSE,151,0.0,1.0,81,0.00,,,0.00,,2013-01-03 03:45:00,
2013-01-02 21:52:00,16.0,11.0,30.03,SSE,152,0.0,0.0,81,0.00,,,0.00,,2013-01-03 03:52:00,
2013-01-02 22:02:00,16.0,11.0,30.03,SW,234,0.0,1.0,80,0.00,,,0.00,,2013-01-03 04:02:00,
2013-01-02 22:12:00,16.0,11.0,30.03,SW,234,0.0,1.0,80,0.00,,,0.00,,2013-01-03 04:12:00,
2013-01-02 22:22:00,16.0,11.0,30.03,SW,233,0.0,0.0,80,0.00,,,0.00,,2013-01-03 04:22:00,
2013-01-02 22:32:00,16.0,11.0,30.03,SW,233,0.0,1.0,79,0.00,,,0.00,,2013-01-03 04:32:00,
2013-01-02 22:42:00,16.0,11.0,30.03,SW,233,0.0,1.0,79,0.00,,,0.00,,2013-01-03 04:42:00,
2013-01-02 22:52:00,16.0,11.0,30.04,WSW,246,1.0,2.0,79,0.00,,,0.00,,2013-01-03 04:52:00,
2013-01-02 23:03:00,16.0,11.0,30.04,WSW,246,0.0,1.0,79,0.00,,,0.00,,2013-01-03 05:03:00,
2013-01-02 23:12:00,16.0,11.0,30.05,WSW,246,0.0,0.0,80,0.00,,,0.00,,2013-01-03 05:12:00,
2013-01-02 23:22:00,16.0,11.0,30.05,WSW,246,0.0,0.0,80,0.00,,,0.00,,2013-01-03 05:22:00,
2013-01-02 23:33:00,16.0,11.0,30.05,WSW,246,0.0,1.0,79,0.00,,,0.00,,2013-01-03 05:33:00,
2013-01-02 23:42:00,16.0,11.0,30.05,WSW,246,0.0,1.0,79,0.00,,,0.00,,2013-01-03 05:42:00,
2013-01-02 23:52:00,16.0,11.0,30.05,SW,231,0.0,2.0,80,0.00,,,0.00,,2013-01-03 05:52:00,